Regional Weather Roundup
Issued by NWS

Home | Current Version | Previous Version | Graphics & Text | Print | Product List | Glossary On
Versions: 1 2 3 4 5 6 7 8 9 10 11 12 13 14 15 16 17 18 19 20 21 22 23 24 25 26 27
000
ASUS45 KGTF 250910
RWRMT
MONTANA HOURLY WEATHER ROUNDUP
NATIONAL WEATHER SERVICE GREAT FALLS MT
300 AM MDT SAT APR 25 2015

NOTE: "FAIR" INDICATES FEW OR NO CLOUDS BELOW 12000 FEET WITH NO
SIGNIFICANT WEATHER AND/OR OBSTRUCTIONS TO VISIBILITY.

MTZ001>007-043-251000-
WEST OF THE DIVIDE

CITY           SKY/WX    TMP DP  RH WIND       PRES   REMARKS
KALISPELL      MOSUNNY   30  24  78 CALM      29.80R
MISSOULA       MOCLDY    33  24  69 CALM      29.82S
BUTTE          CLOUDY    34  26  72 NW8       29.77R WCI  27
DEER LODGE       N/A     36  27  69 CALM      29.82R
EUREKA           N/A     34  25  69 CALM      29.81S
HAMILTON         N/A     34  27  75 S5        29.80S
LIBBY            N/A     28  25  86 CALM      29.83S
$$

MTZ008-052>055-251000-
SOUTHWEST MONTANA

CITY           SKY/WX    TMP DP  RH WIND       PRES   REMARKS
BOZEMAN        LGT SNOW  33  32  96 S3        29.77R FOG
DILLON         LGT SNOW  34  32  92 SW5       29.76R FOG
$$

MTZ009-010-012-014-046-048-049-054-251000-
EAST SLOPES AND CENTRAL MONTANA

CITY           SKY/WX    TMP DP  RH WIND       PRES   REMARKS
CUT BANK       CLOUDY    35  20  54 W9        29.74R WCI  28
GREAT FALLS    CLOUDY    41  32  70 N3        29.75R
MALMSTROM AFB  CLOUDY    42  33  71 N6        29.75R
HELENA         CLOUDY    44  25  47 W8        29.74S
$$

MTZ011-013-016-021-045-047-050-051-251000-
NORTH CENTRAL MONTANA

CITY           SKY/WX    TMP DP  RH WIND       PRES   REMARKS
HAVRE          CLOUDY    50  22  33 NW16      29.69S
LEWISTOWN      LGT SNOW  34  32  92 W8        29.73R FOG     WCI  27
CHINOOK          N/A     46  39  76 NW5       29.70R
FORT BENTON      N/A     46  28  49 W5        29.75S
$$

MTZ017>020-022>042-056>058-061-062-251000-
EASTERN PLAINS

CITY           SKY/WX    TMP DP  RH WIND       PRES   REMARKS
BAKER          PTCLDY    42  35  76 SE9       29.66R
BILLINGS       LGT RAIN  44  40  85 NW16      29.64R
GLASGOW        CLOUDY    50  36  58 NW8       29.60S
JORDAN           N/A     51  36  56 NW14      29.60F
LIVINGSTON     LGT RAIN  38 N/A N/A W17       29.71R WCI  28
MILES CITY     CLEAR     50  38  63 SE12      29.58S
SIDNEY         MOCLDY    52  37  58 CALM      29.66R
WOLF POINT     MOCLDY    47  39  74 NE6       29.61R
BIG TIMBER       N/A     37  36  93 SW14      29.71R WCI  29
FORSYTH          N/A     45  45 100 CALM      29.57S
PLENTYWOOD       N/A     45  36  70 E9        29.66R
POPLAR           N/A     54  37  54 E7        29.62R
$$

REGIONAL REPORTS...DAKOTAS

CITY           SKY/WX    TMP DP  RH WIND       PRES   REMARKS
WILLISTON      PTCLDY    46  37  71 E5        29.68R
MINOT          CLEAR     36  34  92 E3        29.76R FOG
DICKINSON      MOCLDY    42  39  89 E13       29.69R FOG
BEACH          FAIR      43  41  93 SE13      29.66S
CROSBY         CLOUDY    46  41  81 SE9       29.71R
WATFORD CITY   PTSUNNY   45  39  81 SE7       29.67R
BISMARCK       CLOUDY    45  42  89 E14       29.74R
GRAND FORKS    CLOUDY    45  34  65 E8        29.83R
FARGO          CLOUDY    44  35  70 E12       29.79R
BUFFALO SD       N/A     41  37  86 E12       29.61R
RAPID CITY     PTCLDY    41  37  86 NW9       29.65R
$$

REGIONAL REPORTS...WYOMING/IDAHO/WASHINGTON

CITY           SKY/WX    TMP DP  RH WIND       PRES   REMARKS
GILLETTE       PTCLDY    44  39  82 S9        29.62S
SHERIDAN       MOCLDY    48  36  63 W16       29.56R
BUFFALO WY     CLOUDY    51  37  58 S15       29.60S
CODY           CLOUDY    43  41  93 NE7       29.64R
YELLOWSTONE LA   N/A     32  29  88 VRB6      29.73R WCI  26
IDAHO FALLS    CLOUDY    42  33  70 SW15      29.76S
SALMON         CLOUDY    39  28  65 CALM      29.79S
BOISE          MOCLDY    46  31  55 W6        29.78S
SPOKANE        MOCLDY    40  29  64 SE8       29.79S
$$

REGIONAL REPORTS...ALBERTA

CITY           SKY/WX    TMP DP  RH WIND       PRES   REMARKS
EDMONTON       CLOUDY    36  25  64 E10       29.86R WCI  28
CALGARY        CLOUDY    34  32  93 N10       29.78R WCI  26
LETHBRIDGE     CLEAR     36  32  87 W18       29.75R WCI  25
MEDICINE HAT   MOCLDY    43  36  75 S9        29.68R
$$

REGIONAL REPORTS...SASKATCHEWAN

CITY           SKY/WX    TMP DP  RH WIND       PRES   REMARKS
SWIFT CURRENT  CLOUDY    39  34  81 NE12      29.67S WCI  32
REGINA         LGT RAIN  48  37  66 E12       29.70S
SASKATOON      CLOUDY    28  27  93 NE20G26   29.84S WCI  15
$$



USA.gov is the U.S. government's official web portal to all federal, state and local government web resources and services.